This is the latest recevied weather packets stored in our database for station/object EB2EMZ-14. If no packets are shown the sender has not sent any weather packets the latest 10 day(s).
| Time | Temp. | Humidity | Pressure | Rain* | Wind** | Luminosity | Snow |
|---|---|---|---|---|---|---|---|
| 1777970409 | 13.33° C | 74% | 1012 hPa | 0 mm | - | 0 W/m² | - |
| 1777970111 | 13.33° C | 73% | 1012 hPa | 0 mm | - | 0 W/m² | - |
| 1777969809 | 13.33° C | 72% | 1012.1 hPa | 0 mm | - | 0 W/m² | - |
| 1777969508 | 13.89° C | 71% | 1012.2 hPa | 0 mm | - | 0 W/m² | - |
| 1777969209 | 13.89° C | 72% | 1012.2 hPa | 0 mm | - | 0 W/m² | - |
| 1777968910 | 14.44° C | 72% | 1012.2 hPa | 0 mm | - | 0 W/m² | - |
| 1777968609 | 14.44° C | 72% | 1012.1 hPa | 0 mm | - | 0 W/m² | - |
| 1777968309 | 14.44° C | 72% | 1012 hPa | 0 mm | - | 0 W/m² | - |
| 1777968008 | 14.44° C | 73% | 1012.1 hPa | 0 mm | - | 0 W/m² | - |
| 1777967709 | 15° C | 74% | 1012 hPa | 0 mm | - | 0 W/m² | - |
| 1777967410 | 15° C | 75% | 1012 hPa | 0 mm | - | 0 W/m² | - |
| 1777967109 | 15° C | 75% | 1012 hPa | 0 mm | - | 0 W/m² | - |
| 1777966810 | 15° C | 76% | 1011.9 hPa | 0 mm | - | 0 W/m² | - |
| 1777966509 | 14.44° C | 77% | 1011.9 hPa | 0 mm | - | 0 W/m² | - |
| 1777966209 | 14.44° C | 77% | 1012 hPa | 0 mm | - | 0 W/m² | - |
| 1777965909 | 14.44° C | 79% | 1012 hPa | 0 mm | - | 0 W/m² | - |
| 1777965609 | 14.44° C | 82% | 1012.1 hPa | 0 mm | - | 0 W/m² | - |
| 1777965309 | 13.89° C | 86% | 1012.1 hPa | 0 mm | - | 0 W/m² | - |
| 1777965010 | 12.22° C | 91% | 1012 hPa | 0 mm | - | 0 W/m² | - |
| 1777964710 | 11.11° C | 90% | 1011.9 hPa | 0 mm | - | 0 W/m² | - |
| 1777964409 | 10.56° C | 90% | 1011.9 hPa | 0 mm | - | 0 W/m² | - |
| 1777964108 | 10.56° C | 90% | 1012 hPa | 0 mm | - | 0 W/m² | - |
| 1777963810 | 10° C | 90% | 1011.9 hPa | 0 mm | - | 0 W/m² | - |
| 1777963509 | 10° C | 90% | 1011.9 hPa | 0 mm | - | 0 W/m² | - |
| 1777963210 | 10° C | 91% | 1012 hPa | 0 mm | - | 0 W/m² | - |
* Rain latest hour (hover to see other rain measurements)
** Current wind speed in m/s (hover to see current wind gust speed)